Twin Falls, ID

9:42 AM MDT on July 22, 2017 (GMT -0600)
Joslin Field-Magic Valley Regional

Weather History for KTWF - November, 2012

Change the Weather History Date:

Wednesday, November 14, 2012

  Actual Average Record
Temperature  
Mean Temperature 40 °F -  
Max Temperature 45 °F 49 °F 66 °F (1990)
Min Temperature 34 °F 28 °F 6 °F (1985)
Degree Days  
Heating Degree Days 25 27  
Month to date heating degree days 275 332  
Since 1 July heating degree days 707 951  
Cooling Degree Days 0 0  
Month to date cooling degree days 0 0  
Year to date cooling degree days 970 680  
Moisture  
Dew Point 36 °F    
Average Humidity 78    
Maximum Humidity 92    
Minimum Humidity 64    
Precipitation  
Precipitation 0.05 in 0.02 in 0.60 in (1988)
Month to date precipitation 0.13 0.50  
Year to date precipitation 7.51 8.75  
Sea Level Pressure  
Sea Level Pressure 30.24 in    
Wind  
Wind Speed 4 mph (WNW)    
Max Wind Speed 8 mph    
Max Gust Speed 10 mph    
Visibility 6 miles    
Events Fog , Rain    
T = Trace of Precipitation, MM = Missing Value Source: NWS Daily Summary

Daily Weather History Graph

Daily Weather History Graph

Search for Another Location

Airport or City:

Trip Planner

Search our weather history database for the weather conditions in past years. The results will help you decide how hot, cold, wet, or windy it might be!

Date:

Astronomy

Nov. 14, 2012 Rise Set
Actual Time 7:28 AM MST 5:16 PM MST
Civil Twilight 6:58 AM MST 5:46 PM MST
Nautical Twilight 6:24 AM MST 6:20 PM MST
Astronomical Twilight 5:50 AM MST 6:53 PM MST
Moon 8:23 AM MST (11/14) 6:07 PM MST (11/14)
Length of Visible Light 10h 48m
Length of Day
9h 47m
New Moon, 1% of the Moon is Illuminated
Nov 14
New Moon
Nov 20
First Quarter
Nov 28
Full
Dec 6
Last Quarter
Dec 13
New

Hourly Weather History & Observations

Time (MST) Temp. Windchill Dew Point Humidity Pressure Visibility Wind Dir Wind Speed Gust Speed Precip Events Conditions
12:53 AM 35.1 °F - 28.0 °F 76% 30.18 in 10.0 mi Calm Calm - N/A   Overcast
1:53 AM 34.0 °F - 28.0 °F 79% 30.18 in 10.0 mi Calm Calm - N/A   Overcast
2:53 AM 36.0 °F 31.1 °F 28.0 °F 73% 30.17 in 10.0 mi SSE 5.8 mph - N/A   Overcast
3:53 AM 37.0 °F 32.4 °F 27.0 °F 67% 30.15 in 10.0 mi ESE 5.8 mph - N/A   Overcast
4:53 AM 37.0 °F - 30.0 °F 76% 30.18 in 10.0 mi Calm Calm - 0.00 in Rain Light Rain
5:53 AM 37.0 °F - 32.0 °F 82% 30.21 in 9.0 mi Calm Calm - 0.00 in Rain Light Rain
6:39 AM 35.6 °F 32.8 °F 32.0 °F 87% 30.22 in 4.0 mi SSW 3.5 mph - 0.02 in Rain Light Rain
6:49 AM 37.4 °F 32.8 °F 32.0 °F 81% 30.22 in 7.0 mi SSW 5.8 mph - 0.02 in Rain Light Rain
6:53 AM 37.9 °F 33.5 °F 32.0 °F 79% 30.22 in 8.0 mi SW 5.8 mph - 0.02 in Rain Light Rain
7:39 AM 37.4 °F 33.8 °F 33.8 °F 87% 30.23 in 9.0 mi West 4.6 mph - 0.00 in Rain Light Rain
7:53 AM 37.9 °F 35.5 °F 34.0 °F 86% 30.25 in 5.0 mi West 3.5 mph - 0.01 in Rain Light Rain
8:53 AM 39.0 °F 36.8 °F 35.1 °F 86% 30.26 in 5.0 mi SW 3.5 mph - 0.01 in Rain Light Rain
9:01 AM 39.2 °F - 35.6 °F 87% 30.24 in 6.0 mi Calm Calm - 0.00 in Rain Light Rain
9:53 AM 41.0 °F 39.0 °F 35.1 °F 79% 30.25 in 10.0 mi SW 3.5 mph - 0.00 in   Overcast
10:53 AM 43.0 °F 38.8 °F 37.0 °F 80% 30.24 in 10.0 mi SW 6.9 mph - 0.00 in Rain Light Rain
11:53 AM 44.1 °F 40.1 °F 37.9 °F 79% 30.24 in 8.0 mi SSW 6.9 mph - 0.00 in Rain Light Rain
12:21 PM 44.6 °F 41.4 °F 37.4 °F 76% 30.24 in 10.0 mi SSW 5.8 mph - 0.00 in Rain Light Rain
12:41 PM 44.6 °F 41.4 °F 37.4 °F 76% 30.24 in 10.0 mi SW 5.8 mph - 0.00 in Rain Light Rain
12:53 PM 45.0 °F 41.2 °F 37.9 °F 76% 30.22 in 10.0 mi SW 6.9 mph - 0.00 in Rain Light Rain
1:12 PM 44.6 °F 42.2 °F 37.4 °F 76% 30.24 in 10.0 mi West 4.6 mph - 0.00 in Rain Light Rain
1:51 PM 44.6 °F 42.2 °F 39.2 °F 81% 30.24 in 9.0 mi NW 4.6 mph - 0.00 in Rain Light Rain
1:53 PM 44.1 °F 42.5 °F 39.9 °F 85% 30.23 in 9.0 mi NNW 3.5 mph - 0.00 in Rain Light Rain
1:59 PM 44.6 °F 41.4 °F 39.2 °F 81% 30.24 in 10.0 mi NW 5.8 mph - 0.00 in Rain Light Rain
2:36 PM 44.6 °F 41.4 °F 39.2 °F 81% 30.23 in 6.0 mi WNW 5.8 mph - 0.00 in   Overcast
2:53 PM 44.1 °F 40.8 °F 39.9 °F 85% 30.22 in 10.0 mi WNW 5.8 mph - 0.00 in   Overcast
3:34 PM 44.6 °F 41.4 °F 39.2 °F 81% 30.24 in 10.0 mi WNW 5.8 mph - N/A   Overcast
3:53 PM 45.0 °F 42.6 °F 39.0 °F 80% 30.22 in 10.0 mi West 4.6 mph - N/A   Overcast
4:53 PM 44.1 °F 42.5 °F 37.9 °F 79% 30.22 in 10.0 mi NW 3.5 mph - N/A   Overcast
5:53 PM 42.1 °F - 37.9 °F 85% 30.23 in 8.0 mi Calm Calm - N/A   Overcast
6:12 PM 42.8 °F - 37.4 °F 81% 30.26 in 7.0 mi Calm Calm - N/A   Overcast
6:21 PM 42.8 °F - 37.4 °F 81% 30.26 in 7.0 mi Calm Calm - N/A   Overcast
6:53 PM 42.1 °F 39.2 °F 37.9 °F 85% 30.26 in 6.0 mi WNW 4.6 mph - N/A   Overcast
7:10 PM 41.0 °F 37.1 °F 37.4 °F 87% 30.28 in 1.5 mi NNW 5.8 mph - N/A   Overcast
7:20 PM 41.0 °F 37.1 °F 37.4 °F 87% 30.28 in 0.5 mi NW 5.8 mph - N/A Fog Fog
7:29 PM 39.2 °F 37.0 °F 37.4 °F 93% 30.28 in 0.2 mi NW 3.5 mph - N/A Fog Fog
7:45 PM 41.0 °F 39.0 °F 37.4 °F 87% 30.28 in 0.5 mi WNW 3.5 mph - N/A Fog Fog
7:53 PM 39.9 °F 36.7 °F 37.9 °F 93% 30.27 in 0.2 mi NW 4.6 mph - N/A Fog Fog
8:53 PM 39.0 °F 34.8 °F 37.0 °F 93% 30.27 in 0.2 mi NNW 5.8 mph - N/A Fog Fog
9:16 PM 39.2 °F 34.2 °F 35.6 °F 87% 30.29 in 0.2 mi NW 6.9 mph - N/A Fog Fog
9:27 PM 39.2 °F 33.6 °F 35.6 °F 87% 30.29 in 0.2 mi NW 8.1 mph - N/A Fog Fog
9:53 PM 39.0 °F 34.8 °F 36.0 °F 89% 30.29 in 0.2 mi NNW 5.8 mph - 0.01 in Fog Fog
10:53 PM 39.0 °F 36.8 °F 36.0 °F 89% 30.29 in 0.2 mi North 3.5 mph - N/A Fog Fog
11:33 PM 39.2 °F 35.9 °F 35.6 °F 87% 30.31 in 0.2 mi NNW 4.6 mph - N/A Fog Fog
11:53 PM 39.0 °F 35.7 °F 36.0 °F 89% 30.28 in 0.2 mi North 4.6 mph - N/A Fog Fog